map of HOQ home
Great Circle Mapper logo
HOQ - Airport
Location
City:  Hof, Bavaria, Germany
Name:Plauen
ICAO / IATA:EDQM / HOQ

Details
Type:Airport (Flugplatz, Airfield)
Use:Public/Civil
Latitude:5017'20"N (50.288836)
Longitude:1151'18"E (11.854919)
Datum:WGS 1984
Elevation:1960 ft (597 m)
Variation:2.88E (WMM2015 magnetic declination)
0.13 annual change
Runways:1
Longest:4856 × 98 ft (1480 × 30 m), paved

Time
Time Zone:UTC+1 (DST+2)
Local Time:

Weather
METAR:EDQM 291720Z 19011KT 9999 -SHSN FEW022 BKN034 BKN042 M01/M02 Q0984

Related Locations
Nearby:
Farthest:CHT: 11839 mi / 19054 km
Waitangi [Tuuta], Chatham Islands, NZ

Find:

   beyond  
but within

Other Information
Maps:
NOTAMs:
Links:
Sources:

  
flag of Germany
flag of Bavaria
  

Sectional Chart

Flight Planning
at skyvector.com

Satellite Image

Google Maps Satellite View

 

Copyright © 2004-2015 Karl L. Swartz. All rights reserved.
The Great Circle Mapper name and logo are trademarks of the Great Circle Mapper.
All other trademarks mentioned herein belong to their respective owners.
Please see credits for attibutions and further copyright information.

  Follow gcmap on Facebook Follow gcmap on Twitter

hCard Microformat

Geo Microformat